OEFPT EDDH-EDHL

Flight info

Callsign OEFPT
Flight time 0h 18m
Altitude
Route
Aircraft DA42

Departure

Time 2026-05-07 17:01
Airport Hamburg Helmut Schmidt Airport (EDDH)

Arrival

Time 2026-05-07 17:19
Airport Lübeck Blankensee Airport (EDHL)
Time Latitude Longitude Altitude Speed Heading
2026-05-07 16:50 53.62708 9.98835 45 ft 8 kts 52°
2026-05-07 16:50 53.62780 9.98808 45 ft 16 kts 336°
2026-05-07 16:51 53.62851 9.98875 45 ft 11 kts 50°
2026-05-07 16:51 53.62907 9.98991 45 ft 12 kts 53°
2026-05-07 16:51 53.62959 9.99094 45 ft 16 kts 51°
2026-05-07 16:51 53.63042 9.99264 45 ft 19 kts 50°
2026-05-07 16:52 53.63082 9.99357 45 ft 0 kts 54°
2026-05-07 16:58 53.63130 9.99481 44 ft 18 kts 58°
2026-05-07 16:58 53.63183 9.99468 44 ft 0 kts 333°
2026-05-07 17:00 53.63185 9.99466 44 ft 4 kts 333°
2026-05-07 17:00 53.63408 9.99263 45 ft 68 kts 334°
2026-05-07 17:00 53.63922 9.98795 202 ft 90 kts 336°
2026-05-07 17:00 53.64489 9.98256 476 ft 97 kts 351°
2026-05-07 17:01 53.65122 9.98332 797 ft 89 kts 16°
2026-05-07 17:01 53.65719 9.98519 1245 ft 87 kts 14°
2026-05-07 17:01 53.66320 9.98668 1653 ft 86 kts 12°
2026-05-07 17:01 53.66923 9.98794 1970 ft 94 kts 14°
2026-05-07 17:02 53.67669 9.98997 1885 ft 130 kts 17°
2026-05-07 17:02 53.68552 9.99326 1907 ft 131 kts 17°
2026-05-07 17:02 53.69450 9.99647 1927 ft 129 kts 15°
2026-05-07 17:02 53.70335 9.99962 1911 ft 130 kts 16°
2026-05-07 17:03 53.71224 10.00274 1899 ft 131 kts 15°
2026-05-07 17:03 53.72116 10.00568 1911 ft 128 kts 16°
2026-05-07 17:03 53.72989 10.00843 1937 ft 128 kts 16°
2026-05-07 17:03 53.73864 10.01120 1986 ft 130 kts 15°
2026-05-07 17:04 53.74751 10.01416 2005 ft 131 kts 15°
2026-05-07 17:04 53.75640 10.01696 2023 ft 132 kts 13°
2026-05-07 17:04 53.76553 10.01923 2011 ft 134 kts 13°
2026-05-07 17:04 53.77479 10.02140 2032 ft 134 kts 11°
2026-05-07 17:05 53.78426 10.02335 1959 ft 138 kts 11°
2026-05-07 17:05 53.79376 10.02542 1980 ft 136 kts 11°
2026-05-07 17:05 53.80318 10.02786 1918 ft 137 kts 13°
2026-05-07 17:05 53.81253 10.03041 1905 ft 135 kts 14°
2026-05-07 17:06 53.82175 10.03384 1906 ft 135 kts 20°
2026-05-07 17:06 53.82978 10.04131 1889 ft 132 kts 46°
2026-05-07 17:06 53.83569 10.05265 1988 ft 125 kts 53°
2026-05-07 17:06 53.84099 10.06443 1982 ft 126 kts 62°
2026-05-07 17:07 53.84513 10.07725 1982 ft 126 kts 63°
2026-05-07 17:07 53.84933 10.09061 1982 ft 127 kts 64°
2026-05-07 17:07 53.85349 10.10360 1981 ft 127 kts 64°
2026-05-07 17:07 53.85766 10.11678 1979 ft 127 kts 64°
2026-05-07 17:08 53.86183 10.13002 1980 ft 127 kts 64°
2026-05-07 17:08 53.86499 10.14384 1979 ft 127 kts 89°
2026-05-07 17:08 53.86305 10.15839 1991 ft 128 kts 99°
2026-05-07 17:08 53.86185 10.17326 1987 ft 127 kts 95°
2026-05-07 17:09 53.86085 10.18795 1985 ft 125 kts 96°
2026-05-07 17:09 53.85977 10.20256 1987 ft 125 kts 96°
2026-05-07 17:09 53.85862 10.21733 1989 ft 127 kts 97°
2026-05-07 17:09 53.85747 10.23201 1985 ft 126 kts 96°
2026-05-07 17:10 53.85631 10.24670 1984 ft 126 kts 96°
2026-05-07 17:10 53.85516 10.26136 1985 ft 126 kts 96°
2026-05-07 17:10 53.85399 10.27608 1987 ft 127 kts 95°
2026-05-07 17:10 53.85281 10.29099 1985 ft 128 kts 95°
2026-05-07 17:11 53.85162 10.30604 1988 ft 129 kts 96°
2026-05-07 17:11 53.85041 10.32109 1991 ft 129 kts 96°
2026-05-07 17:11 53.84921 10.33610 1995 ft 129 kts 96°
2026-05-07 17:11 53.84802 10.35102 1990 ft 130 kts 95°
2026-05-07 17:12 53.84679 10.36631 1885 ft 132 kts 96°
2026-05-07 17:12 53.84555 10.38184 1779 ft 133 kts 96°
2026-05-07 17:12 53.84429 10.39743 1681 ft 135 kts 96°
2026-05-07 17:12 53.84301 10.41337 1575 ft 137 kts 95°
2026-05-07 17:13 53.84169 10.42929 1493 ft 136 kts 95°
2026-05-07 17:13 53.84037 10.44467 1492 ft 128 kts 96°
2026-05-07 17:13 53.83920 10.45952 1496 ft 127 kts 95°
2026-05-07 17:13 53.83809 10.47444 1498 ft 127 kts 95°
2026-05-07 17:14 53.83697 10.48928 1485 ft 126 kts 95°
2026-05-07 17:14 53.83586 10.50372 1494 ft 122 kts 95°
2026-05-07 17:14 53.83473 10.51790 1491 ft 121 kts 95°
2026-05-07 17:14 53.83352 10.53205 1492 ft 122 kts 95°
2026-05-07 17:15 53.83230 10.54626 1498 ft 122 kts 95°
2026-05-07 17:15 53.83071 10.56046 1488 ft 125 kts 108°
2026-05-07 17:15 53.82570 10.57262 1494 ft 126 kts 123°
2026-05-07 17:15 53.82008 10.58417 1434 ft 125 kts 124°
2026-05-07 17:16 53.81506 10.59609 1279 ft 123 kts 115°
2026-05-07 17:16 53.81115 10.60778 1106 ft 109 kts 114°
2026-05-07 17:16 53.80749 10.61857 959 ft 103 kts 113°
2026-05-07 17:16 53.80423 10.62913 868 ft 96 kts 107°
2026-05-07 17:17 53.80134 10.63862 819 ft 83 kts 106°
2026-05-07 17:17 53.79909 10.64722 723 ft 80 kts 104°
2026-05-07 17:17 53.79787 10.65648 622 ft 80 kts 87°
2026-05-07 17:17 53.79751 10.66595 538 ft 82 kts 86°
2026-05-07 17:18 53.79801 10.67536 482 ft 80 kts 76°
2026-05-07 17:18 53.79874 10.68464 360 ft 74 kts 70°
2026-05-07 17:18 53.80031 10.69291 259 ft 73 kts 69°
2026-05-07 17:18 53.80178 10.70127 163 ft 71 kts 69°
2026-05-07 17:19 53.80338 10.70895 58 ft 64 kts 68°
2026-05-07 17:19 53.80447 10.71450 55 ft 46 kts 71°
2026-05-07 17:19 53.80522 10.71857 54 ft 29 kts 71°
2026-05-07 17:19 53.80589 10.71914 55 ft 19 kts 295°
2026-05-07 17:20 53.80655 10.71648 56 ft 26 kts 290°
2026-05-07 17:20 53.80628 10.71386 55 ft 22 kts 255°
2026-05-07 17:20 53.80583 10.71152 56 ft 22 kts 254°
2026-05-07 17:20 53.80525 10.70854 53 ft 28 kts 253°
2026-05-07 17:21 53.80468 10.70559 52 ft 25 kts 251°
2026-05-07 17:21 53.80491 10.70392 52 ft 13 kts 323°
2026-05-07 17:21 53.80563 10.70338 53 ft 11 kts 25°
2026-05-07 17:21 53.80603 10.70412 53 ft 7 kts 83°
2026-05-07 17:22 53.80583 10.70445 53 ft 2 kts 215°
2026-05-07 17:22 53.80570 10.70439 53 ft 0 kts 49°